Probability
0 0 0 0 0 0 0 0 0 0 0 0 0 0 0 0 0 0 0 0 0 0 0 0 0 0 0 0 0 0 0 0 0 0 0 0 0 0
0 0 0 0 0 0 0 0 0 0 0 0 0 0 0 0 0 0 0 0 0 0 0 0 0 0 0 0 0 0 0 0 0 0 0 0 0 0
0 0 0 0 0 0 0 0 0 0 0 0 0 0 0 0 0 0 0 0 0 0 0 0 0 0 0 0 0 0 0 0 0 0 0 0 0 0
0 0 0 0 0 0 0 0 0 0 0 0 0 0 0 0 0 0 0 0 0 0 0 0 0 0 0 0 0 0 0 0 0 0 0 0 0 0
0 0 0 0 0 0 0 0 0 0 0 0 0 0 0 0 0 0 0 0 0 0 0 0 0 0 0 0 0 0 0 0 0 0 0 0 0 0
0 0 0 0 0 0 0 0 0 0 0 0 0 0 0 0 0 0 0 0 0 0 0 0 0 0 0 0 0 0 0 0 0 0 0 0 0 0
0 0 0 0 0 0 0 0 0 0 0 0 0 0 0 0 0 0 0 0 0 0 0 0 0 0 0 0 0 0 0 0 0 0 0 0 0 0
0 0 0 0 0 0 0 0 0 0 0 0 0 0 0 0 0 0 0 0 0 0 0 0 0 0 0 0 0 0 0 0 0 0 0 0 0 0
0 0 0 0 0 0 0 0 0 0 0 0 0 0 0 0 0 0 0 0 0 0 0 0 0 0 0 0 0 0 0 0 0 0 0 0 0 0
0 0 0 0 0 0 0 0 0 0 0 0 0 0 0 0 0 0 0 0 0 0 0 0 0 0 0 0 0 0 0 0 0 0 0 0 0 0
0 0 0 0 0 0 0 0 0 0 0 0 0 0 0 0 0 0 0 0 0 0 0 0 0 0 0 0 0 0 0 0 0 0 0 0 0 0
0 0 0 0 0 0 0 0 0 0 0 0 0 0 0 0 0 0 0 0 0 0 0 0 0 0 0 0 0 0 0 0 0 0 0 0 0 0
0 0 0 0 0 0 0 0 0 0 0 0 0 0 0 0 0 0 0 0 0 0 0 0 0 0 0 0 0 0 0 0 0 0 0 0 0 0
0 0 0 0 0 0 0 0 0 0 0 0 0 0 0 0 0 0 0 0 0 0 0 0 0 0 0 0 0 0 0 0 0 0 0 0 0 0
0 0 0 0 0 0 0 0 0 0 0 0 0 0 0 0 0 0 0 0 0 0 0 0 0 0 0 0 0 0 0 0 0 0 0 0 0 0
0 0 0 0 0 0 0 0 0 0 0 0 0 0 0 0 0 0 0 0 0 0 0 0 0 0 0 0 0 0 0 0 0 0 0 0 0 0
0 0 0 0 0 0 0 0 0 0 0 0 0 0 0 0 0 0 0 0 0 0 0 0 0 0 0 0 0 0 0 0 0 0 0 0 0 0
0 0 0 0 0 0 0 0 0 0 0 0 0 0 0 0 0 0 0 0 0 0 0 0 0 0 0 0 0 0 0 0 0 0 0 0 0 0
0 0 0 0 0 0 0 0 0 0 0 0 0 0 0 0 0 0 0 0 0 0 0 0 0 0 0 0 0 0 0 0 0 0 0 0 0 0
0 0 0 0 0 0 0 0 0 0 0 0 0 0 0 0 0 0 0 0 0 0 0 0 0 0 0 0 0 0 0 0 0 0 0 0 0 0
0 0 0 0 0 0 0 0 0 0 0 0 0 0 0 0 0 0 0 0 0 0 0 0 0 0 0 0 0 0 0 0 0 0 0 0 0 0
0 0 0 0 0 0 0 0 0 0 0 0 0 0 0 0 0 0 0 0 0 0 0 0 0 0 0 0 0 0 0 0 0 0 0 0 0 0
0 0 0 0 0 0 0 0 0 0 0 0 0 0 0 0 0 0 0 0 0 0 0 0 0 0 0 0 0 0 0 0 0 0 0 0 0 0
Height
5636 5628 5620 5611 5602 5592 5583 5573 5565 5561 5560 5554 5541 5528 5511 5495 5479 5464 5450 5437 5425 5413 5401 5391 5382 5374 5368 5362 5359 5356 5354 5354 5354 5355 5357 5360 5364 5369
5621 5612 5603 5594 5584 5574 5564 5554 5542 5533 5529 5527 5515 5501 5482 5462 5442 5422 5404 5389 5375 5364 5353 5345 5338 5333 5328 5325 5323 5322 5322 5322 5323 5324 5326 5328 5331 5335
5605 5596 5586 5577 5567 5557 5546 5535 5523 5508 5498 5495 5483 5467 5448 5427 5406 5385 5366 5350 5338 5328 5318 5309 5303 5299 5295 5294 5293 5293 5294 5294 5295 5296 5297 5300 5302 5307
5590 5580 5570 5560 5550 5539 5527 5515 5500 5483 5465 5455 5448 5431 5412 5389 5370 5355 5340 5326 5313 5303 5293 5285 5279 5274 5271 5270 5269 5269 5269 5269 5270 5271 5272 5274 5276 5278
5574 5564 5554 5544 5532 5520 5507 5492 5475 5457 5436 5417 5405 5391 5376 5359 5344 5332 5320 5309 5297 5286 5277 5270 5264 5259 5255 5253 5252 5251 5251 5251 5250 5250 5249 5250 5251 5254
5558 5548 5537 5525 5512 5499 5484 5467 5448 5429 5409 5389 5373 5361 5349 5337 5325 5316 5307 5297 5286 5275 5267 5261 5254 5249 5244 5241 5239 5238 5236 5235 5233 5232 5231 5231 5232 5233
5542 5531 5519 5505 5491 5474 5457 5439 5418 5398 5380 5366 5353 5341 5331 5321 5313 5304 5296 5288 5278 5267 5261 5254 5246 5240 5235 5230 5226 5224 5222 5221 5219 5217 5215 5214 5214 5216
5526 5514 5500 5485 5469 5452 5433 5412 5390 5371 5357 5347 5338 5328 5319 5311 5303 5295 5286 5279 5272 5263 5255 5249 5239 5233 5226 5221 5216 5212 5210 5208 5206 5204 5202 5201 5201 5202
5508 5495 5481 5464 5446 5429 5411 5393 5374 5356 5343 5334 5326 5318 5311 5303 5296 5289 5281 5272 5263 5255 5249 5243 5233 5225 5217 5211 5205 5202 5199 5197 5195 5194 5193 5192 5191 5191
5489 5474 5458 5442 5423 5405 5391 5376 5361 5347 5336 5327 5318 5310 5303 5295 5288 5282 5276 5269 5260 5249 5241 5235 5227 5219 5210 5202 5197 5194 5192 5190 5188 5186 5185 5184 5183 5183
5469 5452 5435 5419 5402 5384 5371 5360 5349 5338 5328 5320 5311 5304 5296 5289 5282 5276 5271 5265 5258 5247 5236 5228 5220 5212 5204 5197 5192 5188 5186 5184 5183 5181 5179 5177 5175 5173
5452 5432 5413 5395 5378 5365 5355 5347 5339 5331 5323 5315 5307 5299 5292 5285 5278 5270 5264 5258 5251 5244 5234 5225 5215 5207 5201 5193 5189 5185 5182 5180 5178 5176 5173 5170 5166 5163
5431 5413 5394 5377 5363 5352 5344 5337 5330 5323 5316 5309 5302 5296 5289 5282 5274 5266 5259 5251 5245 5239 5230 5222 5213 5204 5197 5193 5188 5184 5181 5177 5174 5170 5167 5162 5158 5153
5410 5392 5376 5363 5352 5343 5336 5329 5323 5316 5309 5303 5297 5290 5284 5278 5270 5263 5256 5248 5241 5235 5227 5219 5212 5205 5198 5193 5188 5184 5179 5174 5170 5165 5161 5156 5150 5143
5389 5373 5360 5351 5343 5335 5329 5322 5316 5310 5304 5298 5291 5285 5278 5272 5266 5260 5252 5245 5238 5232 5226 5218 5212 5206 5200 5194 5189 5184 5179 5174 5168 5162 5157 5150 5143 5136
5374 5360 5349 5341 5334 5328 5322 5315 5309 5302 5296 5291 5285 5278 5272 5266 5260 5255 5250 5244 5238 5231 5225 5219 5213 5207 5201 5196 5190 5184 5178 5173 5168 5161 5154 5146 5138 5130
5360 5350 5341 5334 5328 5321 5314 5307 5301 5295 5289 5283 5277 5272 5266 5260 5255 5250 5245 5240 5235 5230 5224 5219 5214 5209 5203 5198 5192 5186 5180 5175 5168 5161 5153 5145 5137 5129
5348 5341 5334 5328 5322 5315 5309 5302 5295 5289 5283 5277 5271 5266 5261 5256 5250 5245 5241 5237 5232 5227 5223 5218 5214 5210 5206 5201 5196 5190 5184 5177 5170 5163 5155 5147 5141 5135
5341 5334 5328 5322 5316 5309 5303 5296 5290 5283 5277 5271 5266 5260 5255 5251 5246 5242 5237 5233 5229 5225 5221 5217 5214 5211 5207 5203 5199 5193 5187 5180 5174 5167 5160 5154 5149 5145
5335 5330 5324 5318 5311 5305 5299 5292 5285 5279 5273 5267 5261 5256 5251 5247 5243 5238 5234 5230 5226 5223 5219 5217 5214 5211 5208 5205 5201 5196 5190 5184 5178 5172 5166 5162 5160 5157
5331 5326 5321 5315 5309 5302 5296 5289 5283 5277 5271 5265 5259 5254 5249 5244 5240 5235 5231 5227 5224 5221 5218 5216 5214 5212 5210 5208 5204 5200 5195 5190 5184 5179 5175 5172 5171 5170
5329 5324 5319 5313 5307 5301 5294 5288 5282 5276 5270 5264 5258 5253 5247 5242 5238 5233 5229 5225 5222 5220 5217 5215 5214 5213 5212 5211 5208 5205 5200 5196 5192 5187 5184 5182 5182 5183
5327 5322 5317 5311 5305 5299 5293 5287 5281 5275 5269 5263 5257 5251 5246 5241 5236 5231 5227 5224 5221 5219 5217 5215 5215 5214 5214 5213 5212 5209 5206 5203 5200 5197 5194 5192 5192 5193
Wind_Speed
64 67 70 73 75 76 77 78 80 81 80 82 87 92 99 105 111 116 121 125 126 126 124 121 118 115 112 109 105 102 99 97 96 95 94 94 96 97
67 70 73 75 75 76 78 81 85 88 89 90 95 101 108 115 121 125 126 124 119 114 108 103 98 94 91 88 86 85 83 82 81 81 81 82 83 83
70 72 74 75 75 78 81 85 90 96 99 100 105 111 116 119 118 114 109 103 96 90 86 83 80 77 74 72 71 71 71 71 72 73 74 76 78 79
72 73 74 75 78 81 85 91 96 103 109 113 114 115 112 106 98 90 83 78 74 70 68 66 63 60 58 56 55 55 56 57 59 61 63 66 68 72
72 73 75 77 81 86 91 97 104 109 114 117 113 105 94 83 75 66 60 57 55 55 53 51 48 46 44 44 43 42 43 44 45 48 51 54 56 60
72 74 77 81 87 92 98 104 110 112 111 106 97 85 73 62 55 50 45 44 43 45 45 43 42 40 39 37 36 35 35 36 37 39 42 45 48 51
74 77 81 87 93 99 106 110 110 106 99 89 77 65 54 47 43 40 37 35 36 40 39 38 39 39 38 38 36 35 33 32 33 35 36 38 41 43
76 81 87 93 99 105 109 107 100 91 82 70 59 50 45 42 38 35 34 33 33 36 35 34 37 37 38 37 37 35 32 30 30 29 29 30 31 33
81 87 92 98 105 107 104 94 82 72 64 54 47 43 40 37 34 32 30 31 34 36 33 31 34 35 36 36 34 30 26 25 24 22 22 23 24 25
87 93 97 102 106 102 92 78 65 55 49 45 43 40 37 35 34 32 30 28 31 36 37 34 33 33 33 32 29 23 19 18 18 18 18 19 21 23
92 97 102 104 100 90 76 62 50 44 42 41 39 37 37 36 35 32 30 29 29 33 36 36 35 32 31 28 22 16 14 15 15 16 17 20 22 24
95 100 101 96 85 72 59 48 41 39 38 36 35 35 35 35 35 34 34 33 32 31 32 32 32 29 25 23 17 13 12 13 14 16 18 21 23 25
97 97 92 81 69 58 48 41 38 37 35 33 32 33 33 33 33 34 35 36 34 33 32 31 28 26 22 19 16 13 13 14 15 17 19 21 24 27
95 89 78 66 55 46 40 37 37 35 33 32 33 33 32 31 31 32 33 34 35 33 31 28 26 24 21 19 18 17 17 17 17 18 19 22 25 28
86 75 63 53 44 39 36 35 34 32 32 32 32 32 32 31 29 29 30 31 32 30 28 25 23 22 21 20 19 18 18 18 18 18 21 23 24 26
72 60 50 43 38 35 35 35 33 33 33 33 32 32 32 31 30 28 27 26 26 26 24 21 19 19 20 21 21 21 20 19 19 21 22 22 23 23
59 48 40 36 34 34 35 35 35 35 35 35 33 32 31 30 29 27 26 25 23 21 19 18 16 16 17 19 21 22 22 22 22 22 22 20 19 18
47 38 34 32 32 32 33 34 35 34 34 33 32 30 28 27 26 26 25 23 21 19 16 14 13 13 15 18 19 21 22 22 23 23 22 19 15 13
37 33 31 31 31 32 33 32 32 32 31 30 29 27 26 24 24 23 22 21 20 17 14 12 10 9 11 14 18 20 21 22 23 24 22 19 16 16
31 29 29 29 30 30 30 30 29 28 28 27 26 24 23 22 21 21 20 19 17 15 13 10 8 7 9 12 15 18 20 20 23 24 22 19 17 19
27 26 26 27 28 28 27 27 26 26 26 26 25 24 22 21 20 20 18 17 16 14 11 8 6 6 7 11 14 17 19 20 22 22 20 18 18 21
23 23 24 25 26 25 25 25 26 26 26 26 25 24 23 21 20 19 18 16 15 13 10 7 4 4 6 9 12 15 17 19 21 21 21 20 20 22
20 21 22 24 24 25 26 26 27 27 27 26 25 24 23 22 21 19 17 15 14 11 9 5 3 4 6 8 11 13 16 18 20 21 23 24 24 23
Wind_Direction
301 302 303 304 304 304 303 302 302 301 300 300 300 299 299 298 297 295 294 292 291 289 288 286 284 283 281 279 277 275 273 272 270 268 267 265 263 262
303 304 305 305 305 304 304 304 304 304 304 304 302 301 300 299 298 297 296 294 293 291 289 287 285 282 279 277 274 272 270 268 267 265 263 262 261 259
305 306 306 306 305 305 305 306 306 306 306 305 304 303 302 301 299 297 296 295 294 293 291 289 287 284 280 277 275 272 270 268 266 264 262 260 258 257
306 306 306 306 307 307 308 308 308 308 308 307 307 305 304 302 300 299 298 297 296 296 294 293 291 288 284 281 278 275 272 270 268 265 263 260 258 255
307 307 308 308 309 309 310 310 310 310 310 309 308 307 306 305 303 302 302 301 300 300 299 299 298 296 292 288 283 280 278 275 272 269 264 261 258 255
308 309 310 310 311 311 312 312 312 312 311 310 310 310 310 308 308 307 306 305 304 301 303 305 305 303 300 295 291 287 284 280 277 273 268 264 259 255
310 311 312 312 313 314 314 315 314 313 311 311 312 313 314 314 314 314 313 312 309 307 310 310 308 306 303 300 297 293 289 285 281 277 272 266 262 257
311 312 313 314 314 316 317 316 315 313 313 314 316 317 318 318 320 320 319 319 315 313 316 314 309 307 304 301 297 295 292 288 285 279 272 267 264 260
313 313 314 315 316 317 317 316 314 313 314 316 319 320 321 322 324 326 326 325 322 321 324 323 316 312 308 304 301 298 292 289 285 278 271 268 266 263
314 315 316 317 318 317 316 316 315 314 316 318 320 322 324 326 328 330 331 332 330 326 328 329 325 322 315 312 308 300 291 287 282 277 275 274 272 270
316 317 318 318 318 317 317 317 316 316 317 319 321 324 326 328 329 331 332 336 339 333 331 332 330 329 323 321 318 307 294 287 285 283 284 284 282 279
318 318 319 319 318 317 318 318 317 317 319 320 320 323 325 326 328 330 333 338 343 341 337 336 335 337 336 334 335 325 310 298 292 292 293 292 291 289
319 319 319 318 317 317 318 318 318 319 320 320 320 321 322 324 327 329 332 335 342 345 344 344 346 349 353 353 350 342 328 317 311 309 306 303 300 298
320 319 318 317 317 317 317 318 319 320 320 320 320 320 322 324 326 327 330 333 339 344 347 350 355 360 2 0 357 350 342 336 330 324 319 314 310 306
320 318 318 318 317 317 317 319 319 318 318 319 320 320 322 323 325 327 330 333 337 342 348 353 360 5 7 7 5 360 353 346 342 337 331 325 318 312
319 318 317 318 318 318 319 320 320 319 319 321 321 321 322 323 324 326 328 332 334 338 346 355 2 8 11 11 10 8 4 359 350 342 339 335 329 324
320 319 318 319 320 321 321 322 322 322 322 322 323 323 323 322 323 324 327 331 334 338 343 350 1 10 14 14 12 10 7 2 358 355 351 350 347 346
321 321 321 321 323 324 324 323 323 323 323 323 323 323 323 323 323 324 326 330 333 337 342 347 356 7 13 15 15 14 11 9 9 9 8 12 20 28
323 324 325 326 328 329 329 328 328 327 327 328 327 327 326 326 326 326 327 330 334 338 341 345 354 8 16 17 16 15 15 16 19 20 25 37 51 67
326 328 330 333 335 336 337 338 339 339 339 339 337 336 334 332 332 331 331 332 336 340 341 343 352 9 20 20 19 21 21 24 27 31 40 54 72 86
329 333 337 340 342 344 346 349 350 350 348 347 345 343 341 338 337 336 336 336 340 344 345 345 356 18 29 27 26 27 30 34 37 41 51 68 87 98
336 341 344 346 349 351 353 353 353 352 350 349 348 347 346 344 342 340 340 341 343 345 347 350 4 33 44 41 38 37 40 46 50 53 63 81 96 103
343 348 351 353 354 355 354 352 350 348 347 347 347 348 348 348 347 346 345 345 347 349 353 1 26 63 72 67 56 52 54 59 65 69 76 87 97 104